TimeCET,TemperatureF,Dew PointF,Humidity,Sea Level PressureIn,VisibilityMPH,Wind Direction,Wind SpeedMPH,Gust SpeedMPH,PrecipitationIn,Events,Conditions,WindDirDegrees,DateUTC
12:15 AM,46.4,44.6,93,29.77,3.7,NE,6.7,-,N/A,,Mostly Cloudy,50,2013-11-10 23:15:00
12:34 AM,46.4,44.6,93,29.77,3.1,NE,6.7,-,N/A,,Mostly Cloudy,40,2013-11-10 23:34:00
12:45 AM,46.4,44.6,93,29.77,2.5,NNE,8.9,-,N/A,,Overcast,30,2013-11-10 23:45:00
1:02 AM,48.2,46.4,93,29.77,1.9,NE,8.9,-,N/A,,Overcast,40,2013-11-11 00:02:00
1:15 AM,48.2,46.4,93,29.77,1.2,NE,8.9,-,N/A,,Overcast,50,2013-11-11 00:15:00
1:23 AM,48.2,46.4,93,29.77,0.9,NE,11.2,-,N/A,,Overcast,40,2013-11-11 00:23:00
1:36 AM,48.2,46.4,93,29.77,0.5,NE,8.9,-,N/A,Fog,Fog,40,2013-11-11 00:36:00
1:45 AM,48.2,46.4,93,29.77,0.5,NE,8.9,-,N/A,Fog,Fog,40,2013-11-11 00:45:00
2:00 AM,-9999,-9999,N/A,-9999,0.4,NE,11.2,-,N/A,Fog,Fog,40,2013-11-11 01:00:00
2:15 AM,48.2,46.4,93,29.74,0.5,NE,8.9,-,N/A,Fog,Fog,40,2013-11-11 01:15:00
2:27 AM,48.2,46.4,93,29.77,0.9,NE,13.4,-,N/A,,Overcast,40,2013-11-11 01:27:00
2:45 AM,48.2,48.2,100,29.77,1.9,NE,13.4,-,N/A,,Overcast,40,2013-11-11 01:45:00
3:15 AM,48.2,46.4,93,29.77,1.9,NE,13.4,-,N/A,,Overcast,50,2013-11-11 02:15:00
3:45 AM,48.2,46.4,93,29.77,3.1,NE,11.2,-,N/A,,Overcast,50,2013-11-11 02:45:00
4:15 AM,48.2,44.6,87,29.80,5.0,NE,13.4,-,N/A,,Overcast,40,2013-11-11 03:15:00
4:45 AM,48.2,44.6,87,29.80,-9999.0,NE,13.4,-,N/A,,Clear,40,2013-11-11 03:45:00
5:00 AM,-9999,-9999,N/A,-9999,3.1,NE,11.2,-,N/A,Rain,Light Rain,40,2013-11-11 04:00:00
5:15 AM,48.2,44.6,87,29.80,-9999.0,NNE,13.4,-,N/A,,Clear,30,2013-11-11 04:15:00
5:18 AM,48.2,44.6,87,29.80,6.2,NE,13.4,-,N/A,Rain,Light Rain,40,2013-11-11 04:18:00
5:45 AM,-9999,-9999,N/A,-9999,6.2,NNE,11.2,-,N/A,,Overcast,30,2013-11-11 04:45:00
6:15 AM,48.2,44.6,87,29.83,6.2,NE,15.7,-,N/A,Rain,Light Rain,40,2013-11-11 05:15:00
6:18 AM,48.2,44.6,87,29.83,6.2,NE,15.7,26.8,N/A,Rain,Light Rain,40,2013-11-11 05:18:00
6:45 AM,48.2,44.6,87,29.83,6.2,NNE,15.7,26.8,N/A,Rain,Light Rain,30,2013-11-11 05:45:00
7:15 AM,48.2,44.6,87,29.86,-9999.0,NE,13.4,-,N/A,,Clear,40,2013-11-11 06:15:00
7:45 AM,50.0,42.8,76,29.89,6.2,NE,15.7,26.8,N/A,Rain,Light Rain,40,2013-11-11 06:45:00
8:15 AM,50.0,42.8,76,29.92,6.2,NE,11.2,-,N/A,Rain,Rain,40,2013-11-11 07:15:00
8:45 AM,-9999,-9999,N/A,-9999,1.9,NNE,11.2,22.4,N/A,Rain,Rain,30,2013-11-11 07:45:00
9:15 AM,50.0,44.6,82,29.92,6.2,NE,13.4,-,N/A,Rain,Light Rain,40,2013-11-11 08:15:00
9:45 AM,50.0,44.6,82,29.95,-9999.0,NE,15.7,-,N/A,,Clear,40,2013-11-11 08:45:00
10:15 AM,50.0,44.6,82,29.95,-9999.0,NNE,17.9,-,N/A,,Clear,30,2013-11-11 09:15:00
10:40 AM,51.8,42.8,71,29.98,6.2,NE,15.7,26.8,N/A,Rain,Light Rain,40,2013-11-11 09:40:00
10:45 AM,51.8,42.8,71,29.98,6.2,NE,17.9,29.1,N/A,Rain,Light Rain,40,2013-11-11 09:45:00
11:15 AM,51.8,44.6,76,29.98,6.2,NE,17.9,29.1,N/A,Rain,Light Rain,40,2013-11-11 10:15:00
11:45 AM,-9999,-9999,N/A,-9999,6.2,NNE,15.7,26.8,N/A,,Overcast,20,2013-11-11 10:45:00
12:15 PM,51.8,46.4,82,30.01,6.2,NNE,20.1,-,N/A,Rain,Light Rain,20,2013-11-11 11:15:00
12:32 PM,51.8,44.6,76,30.01,6.2,NNE,20.1,-,N/A,,Mostly Cloudy,20,2013-11-11 11:32:00
12:45 PM,51.8,44.6,76,30.01,6.2,NNE,15.7,26.8,N/A,,Mostly Cloudy,30,2013-11-11 11:45:00
1:03 PM,51.8,44.6,76,30.01,6.2,NNE,17.9,-,N/A,Rain,Light Rain,20,2013-11-11 12:03:00
1:15 PM,51.8,44.6,76,30.01,6.2,NNE,20.1,-,N/A,Rain,Light Rain,20,2013-11-11 12:15:00
1:45 PM,53.6,42.8,67,30.04,6.2,NNE,20.1,-,N/A,,Mostly Cloudy,30,2013-11-11 12:45:00
2:15 PM,51.8,42.8,71,30.06,6.2,NE,20.1,31.3,N/A,,Mostly Cloudy,40,2013-11-11 13:15:00
2:45 PM,-9999,-9999,N/A,-9999,5.0,NNE,15.7,26.8,N/A,Rain,Light Rain,20,2013-11-11 13:45:00
3:15 PM,51.8,41.0,67,30.06,-9999.0,NE,22.4,33.6,N/A,,Clear,40,2013-11-11 14:15:00
3:45 PM,51.8,39.2,62,30.09,-9999.0,NNE,15.7,26.8,N/A,,Clear,30,2013-11-11 14:45:00
4:15 PM,51.8,39.2,62,30.09,-9999.0,NNE,17.9,-,N/A,,Clear,30,2013-11-11 15:15:00
4:45 PM,50.0,39.2,66,30.12,6.2,NNE,13.4,-,N/A,,Mostly Cloudy,30,2013-11-11 15:45:00
5:15 PM,50.0,37.4,62,30.12,6.2,NE,15.7,-,N/A,,Overcast,40,2013-11-11 16:15:00
5:45 PM,-9999,-9999,N/A,-9999,6.2,NNE,13.4,-,N/A,,Mostly Cloudy,30,2013-11-11 16:45:00
6:15 PM,50.0,35.6,58,30.18,6.2,NNE,13.4,24.6,N/A,,Overcast,30,2013-11-11 17:15:00
6:45 PM,51.8,35.6,54,30.18,6.2,NE,15.7,26.8,N/A,,Overcast,40,2013-11-11 17:45:00
7:15 PM,50.0,35.6,58,30.18,6.2,NE,17.9,29.1,N/A,,Overcast,40,2013-11-11 18:15:00
7:45 PM,50.0,35.6,58,30.18,6.2,NNE,17.9,29.1,N/A,,Overcast,30,2013-11-11 18:45:00
8:15 PM,50.0,35.6,58,30.21,6.2,NNE,17.9,29.1,N/A,,Overcast,30,2013-11-11 19:15:00
8:45 PM,-9999,-9999,N/A,-9999,6.2,NNE,13.4,-,N/A,,Clear,30,2013-11-11 19:45:00
9:15 PM,50.0,35.6,58,30.24,-9999.0,NE,15.7,-,N/A,,Clear,40,2013-11-11 20:15:00
9:45 PM,50.0,35.6,58,30.21,-9999.0,NE,17.9,-,N/A,,Clear,40,2013-11-11 20:45:00
9:52 PM,50.0,35.6,58,30.21,6.2,NE,17.9,31.3,N/A,Rain,Light Rain,40,2013-11-11 20:52:00
10:15 PM,48.2,35.6,62,30.24,6.2,NE,20.1,31.3,N/A,Rain,Light Rain,40,2013-11-11 21:15:00
10:45 PM,48.2,35.6,62,30.24,-9999.0,NNE,15.7,-,N/A,,Clear,30,2013-11-11 21:45:00
11:15 PM,48.2,35.6,62,30.24,-9999.0,NE,17.9,29.1,N/A,,Clear,40,2013-11-11 22:15:00
11:45 PM,-9999,-9999,N/A,-9999,0.7,North,-9999.0,-,N/A,,Unknown,0,2013-11-11 22:45:00